Reflectivity
-2 -20 1 6 11 13 3 -0 -20 -20 -20 -20 -20 -20 -20 -20 -20 -20 -20 -20 -20 -0 11 -3 -7 1 11 -1 -7 9 12 14 13 7 -18 -20 -20 -20 -20 -20 -20 -20 -20
5 -20 -10 13 15 6 9 2 -19 -20 -20 -20 -20 -20 -20 -20 -20 -20 -20 -20 -20 -20 -20 -1 4 13 10 6 5 -20 -19 -18 -17 -6 -20 -20 -20 -20 -20 -20 -20 -9 -20
-20 -20 -20 12 -2 -17 -18 -20 -20 -20 -20 -20 -20 -20 -20 -20 -20 -20 -20 -20 -20 -20 -20 -20 -20 -20 -13 -16 -10 -20 -20 -20 -20 -20 -20 -20 -20 -20 -20 -20 -20 -20 -20
-20 -20 -3 5 2 11 -20 -20 -20 -20 -20 -20 -20 -20 -20 -20 -20 -20 -20 -20 -20 -20 -20 -20 -20 -20 -20 -20 -20 -20 -20 -20 -20 -20 -20 -20 -20 8 -20 -20 -20 -20 -20
-20 -20 -4 -6 -16 -15 -20 -20 -20 -20 -20 -20 -20 -20 -20 -20 -20 -20 -20 -20 -20 -20 -20 -20 -20 -20 -20 -20 -20 -20 -20 -20 -20 -20 -20 -20 -20 18 9 -20 -20 -20 -20
-20 -20 -20 -20 -20 -20 -20 -20 -20 -20 -20 -20 -20 -20 -20 -20 -20 -20 -20 -20 -20 -20 -20 -20 -20 -20 -20 -20 -20 -20 -20 -20 -20 -20 -20 -13 -20 -20 -20 -20 -20 -20 2
-20 -20 -20 -7 -20 -20 -20 -20 -20 -20 -20 -20 -20 -20 -20 -20 -20 -20 -20 -20 -20 -20 -20 -20 -20 -20 -20 -20 -20 -20 -20 -20 -20 -20 -20 -20 2 -20 6 -2 -3 -20 2
-20 -20 -20 -20 -20 -20 -20 -20 -20 -20 -20 -20 -20 -20 -20 -20 -20 -20 -20 -20 -20 -20 -20 -20 -20 -20 -20 -20 -20 -20 -20 -20 -20 -20 -20 -20 -20 -20 -3 16 6 -16 -20
-20 -20 -20 -20 -20 -20 -20 -20 -20 -20 -20 -20 -20 -20 -20 -20 -20 -20 -20 -20 -20 -20 -20 -20 -20 -20 -20 -20 -20 -20 -20 -20 -20 -20 -20 -20 -20 -20 9 15 15 7 -20
-20 -20 -20 -20 -20 -20 -20 -20 -20 -20 -20 -20 -20 -20 -20 -20 -20 -20 -20 -20 -20 -20 -20 -20 -20 -20 -20 -20 -20 -20 -20 -20 -20 -20 -20 -20 -20 -20 -8 19 16 19 -12
-20 -20 -20 -20 -20 -20 -20 -20 -20 -20 -20 -20 -20 -20 -20 -20 -20 -20 -20 -20 -20 -20 -20 -20 -20 -20 -20 -20 -20 -20 -20 -20 -20 -20 -20 -20 -20 -20 -20 6 25 19 15
-20 -20 -20 -20 -20 -20 -20 -20 -20 -20 -20 -20 -20 -20 -20 -20 -20 -20 -20 -20 -20 -20 -20 -20 -20 -20 -20 -20 -20 -20 -20 -20 -20 -20 -20 -20 -20 -20 -20 -20 -8 27 16
-20 -20 -20 -20 -20 -20 -20 -20 -20 -20 -20 -20 -20 -20 -20 -20 -20 -20 -20 -20 -20 -20 -20 -20 -20 -20 -20 -20 -20 -20 -20 -20 -20 -20 -20 -20 -20 -20 -20 -20 -20 -18 30
-20 -20 -20 -20 -20 -20 -20 -20 -20 -20 -20 -20 -20 -20 -20 -20 -20 -20 -20 -20 -20 -20 -20 -20 -20 -20 -20 -20 -20 -20 -20 -20 -20 -20 -20 -20 -20 -20 -20 -20 -20 -20 21
-20 -20 -20 -20 -20 -20 -20 -20 -20 -20 -20 -20 -20 -20 -20 -20 -20 -20 -20 -20 -20 -20 -20 -20 -20 -20 -20 -20 -20 -20 -20 -20 -20 -20 -20 -20 -20 -20 -20 -20 -17 13 8
-20 -20 -20 -20 -20 -20 -20 -20 -20 -20 -20 -20 -20 -20 -20 -20 -20 -20 -20 -20 -20 -20 -20 -20 -20 -20 -20 -20 -20 -20 -20 -20 -20 -20 -20 -20 -20 -20 -20 -20 -20 -20 -20
-20 -20 -20 -20 -20 -20 -20 -20 -20 -20 -20 -20 -20 -20 -20 -20 -20 -20 -20 -20 -20 -20 -20 -20 -20 -20 -20 -20 -20 -20 -20 -20 -20 -6 -20 -20 -20 -20 -20 -20 -20 -20 -20
-20 -20 -20 -20 -20 -20 -20 -20 -20 -20 -20 -20 -20 -20 -20 -20 -20 -20 -20 -20 -20 -20 -20 -20 -20 -20 -20 -20 -20 -20 -20 -20 -20 -20 -20 -20 -20 -20 -20 -20 -20 -20 -20
-20 -20 -20 -20 -20 -20 -20 -20 -20 -20 -20 -20 -20 -20 -20 -20 -20 -20 -20 -20 -20 -20 -20 -20 -20 -20 -20 -20 -20 -20 -20 -20 -20 -20 -20 -20 -20 -20 -20 -20 -20 -20 -20
-20 -20 -20 -20 -20 -20 -20 -20 -20 -20 -20 -20 -20 -20 -20 -20 -20 -20 -20 -20 -20 -20 -20 -20 -15 -20 -20 -20 -20 -20 -20 -20 -20 -20 -20 -20 -20 -20 -20 -20 -20 -20 -20
-20 -20 -20 -20 -20 -20 -20 -20 -20 -20 -20 -20 -20 -20 -20 -20 -20 -20 -20 -20 -20 -20 -20 -20 -20 -20 -20 -20 -20 -20 -20 -20 -20 -20 -20 -20 -20 -20 -20 -20 -20 -20 -20
-20 -20 -20 -20 -20 -20 -20 -20 -20 -20 -20 -20 -20 -20 -20 -20 -20 -20 -20 -20 -20 -20 -20 -20 -20 -20 -20 -20 -20 -20 -20 -20 -20 -20 -20 -20 -20 -20 -20 -20 -20 -20 -20
-20 -20 -20 -20 -20 -20 -20 -20 -20 -20 -20 -20 -20 -20 -20 -20 -20 -20 -20 -20 -20 -20 -20 -20 -20 -20 -12 -20 -20 -10 -8 -10 -20 -20 -20 -20 -20 -20 -20 -20 -20 -20 -20
-20 -20 -20 -20 -20 -20 -20 -20 -20 -20 -20 -20 -20 -20 -20 -20 -20 -20 -20 -20 -20 -20 -20 -20 -20 -19 -20 -5 -7 -10 -2 1 5 1 -20 -20 -20 -20 -20 -20 -20 -20 -20
-20 -20 -20 -20 -20 -20 -20 -20 -20 -20 -20 -20 -20 -20 -20 -11 -20 -20 -20 -20 -20 -20 -20 -20 -20 -20 -19 -12 -18 7 2 -15 -2 4 -7 -20 -20 -20 -20 -20 -20 -20 -20
-20 -20 -20 -20 -20 -20 -20 -20 -20 -20 -20 -20 -20 -20 -20 -20 -20 -20 -20 -20 -20 -20 -20 -20 -20 -20 -19 -12 4 6 12 9 9 10 4 -2 -5 -20 -20 -20 -20 -20 -6
Wind_Speed
11 14 16 16 17 18 19 19 20 20 20 20 20 20 19 19 19 19 19 19 19 17 18 18 18 19 19 19 20 19 19 19 17 16 16 15 14 10 8 7 8 11 10
9 17 17 16 16 18 19 18 18 19 19 19 19 19 18 18 18 18 19 19 18 18 17 17 16 16 17 17 18 19 20 19 19 18 17 18 19 15 8 6 8 9 2
9 11 18 15 16 17 17 18 18 18 19 19 19 18 18 18 17 17 17 17 18 18 17 18 18 18 18 18 17 17 17 20 19 20 20 14 16 14 7 4 8 7 4
10 11 14 15 17 16 17 17 18 18 18 19 19 18 18 18 18 18 18 18 18 18 18 18 17 18 17 18 18 17 17 18 22 22 15 14 13 15 9 2 8 8 6
11 12 13 15 16 16 16 17 17 17 18 19 19 19 19 19 18 18 19 18 18 19 19 19 19 19 18 18 18 18 19 19 20 21 16 11 11 11 11 7 8 10 8
9 12 13 14 14 15 16 16 17 18 19 19 19 19 19 19 19 19 19 20 19 20 20 20 20 20 19 19 19 18 18 19 22 16 10 5 6 14 14 11 9 10 10
8 8 11 12 13 14 15 16 17 18 19 20 20 19 18 18 17 18 17 19 19 19 20 20 20 21 20 21 20 19 20 20 16 14 14 1 7 13 14 13 14 10 10
8 6 7 12 11 12 14 15 17 17 18 18 19 18 17 16 17 17 18 19 19 19 18 19 19 20 20 20 19 19 20 21 16 15 14 7 6 10 14 15 12 12 11
8 7 5 4 10 13 13 13 13 15 17 18 17 17 15 14 15 15 15 18 19 19 19 18 19 20 20 20 17 18 20 22 14 12 10 7 12 13 14 15 15 11 10
7 7 6 5 6 5 6 8 7 12 13 15 17 17 15 15 15 17 14 17 17 17 18 18 19 19 19 19 14 15 20 22 13 10 9 9 15 15 16 15 14 15 10
7 7 6 8 7 6 7 5 7 10 10 13 15 19 14 11 13 16 14 16 17 16 18 18 18 19 17 16 15 15 19 8 11 9 8 14 16 17 18 17 14 15 14
6 7 8 8 8 7 6 7 8 8 9 9 12 15 11 12 13 14 15 18 18 17 18 19 18 18 16 11 9 13 8 11 10 8 7 13 15 16 17 17 15 13 16
7 7 8 7 7 9 6 6 5 5 7 7 13 14 12 10 10 10 8 9 11 15 10 14 13 11 14 11 10 10 11 11 8 7 10 10 12 15 16 16 15 13 11
8 7 8 8 7 7 7 6 6 7 7 8 9 13 11 8 10 10 8 11 11 10 13 13 10 13 13 13 12 11 12 10 8 7 10 5 6 11 14 15 14 12 8
7 7 7 8 7 7 7 7 7 7 7 8 8 11 10 10 10 10 9 9 10 11 11 11 12 12 13 13 12 12 12 11 10 7 6 11 0 5 9 12 14 14 16
6 7 6 8 7 7 6 6 6 7 7 7 7 9 12 10 10 10 10 10 11 11 10 11 12 12 12 12 12 13 12 11 9 8 7 10 4 4 2 9 10 14 15
6 6 6 6 7 7 7 7 6 7 7 7 7 9 11 11 12 12 9 10 11 11 13 11 12 12 12 11 14 14 11 10 7 7 8 7 10 7 6 6 8 13 13
7 6 6 6 7 6 6 5 5 6 6 6 7 7 11 11 12 12 9 10 11 10 10 11 11 12 12 12 12 12 11 9 6 6 7 8 7 8 10 8 9 13 12
7 6 7 6 7 6 5 4 3 3 5 5 6 7 10 10 12 11 9 10 12 10 10 10 11 12 12 12 13 13 12 7 5 5 11 10 8 9 8 11 13 14 9
7 6 6 6 6 4 4 4 5 5 5 5 5 7 9 9 11 10 9 11 11 10 10 11 13 11 12 12 13 13 11 3 7 10 12 8 9 10 11 11 10 9 5
6 6 5 6 6 6 5 6 6 6 5 5 5 7 8 9 10 11 9 11 11 11 11 12 11 13 11 13 12 12 13 6 10 12 8 10 12 11 11 8 8 8 8
7 6 5 5 6 6 5 5 5 5 5 5 6 6 7 9 10 10 11 11 12 10 12 13 13 11 9 12 12 10 9 3 14 15 11 8 12 12 11 10 10 10 10
7 6 5 5 5 6 8 5 6 5 4 6 7 6 8 8 10 10 11 10 11 10 10 12 13 14 10 11 13 8 7 7 14 10 13 12 11 11 11 11 10 10 9
7 6 6 5 6 6 7 7 8 7 7 6 6 7 7 7 8 9 11 11 11 10 11 11 9 9 9 10 10 8 10 10 10 10 10 14 12 12 13 10 8 8 7
8 7 6 5 6 6 7 8 8 8 7 6 6 9 8 7 8 8 11 11 11 9 11 12 12 11 7 7 8 9 9 9 10 10 12 13 12 12 11 11 7 7 8
8 7 6 5 6 6 6 7 8 8 8 7 8 8 8 7 7 9 11 10 11 11 12 11 12 11 10 8 8 8 7 8 9 8 10 12 14 13 12 11 7 6 4
Wind_Direction
94 69 45 45 46 46 45 40 37 32 29 27 27 24 24 25 22 19 16 12 9 10 10 9 7 2 359 2 356 354 353 351 344 334 323 308 292 280 281 291 284 240 148
55 89 60 44 46 45 42 37 35 32 30 27 24 24 21 24 20 17 13 10 8 5 1 358 359 358 358 356 350 347 343 341 335 330 318 301 267 247 240 273 280 316 140
58 42 70 42 46 43 42 38 33 33 31 27 24 23 20 21 17 16 12 9 5 2 2 359 353 351 351 349 345 343 340 335 329 319 308 279 270 183 209 251 276 287 265
64 58 60 48 45 40 40 39 35 32 29 27 22 20 20 15 13 11 9 7 4 359 356 357 352 350 348 346 343 339 337 334 326 317 293 274 276 157 156 193 281 266 252
74 62 66 54 44 40 40 39 35 31 29 25 22 18 17 13 12 12 8 5 4 358 355 353 351 349 345 345 340 337 336 331 323 306 281 310 318 24 5 340 283 262 239
67 64 76 54 52 45 43 39 35 32 30 26 23 19 15 14 10 10 8 3 2 358 356 354 350 348 343 339 335 334 332 328 322 297 304 31 338 4 3 328 296 300 303
67 70 76 63 56 49 42 38 36 32 29 26 22 17 13 12 11 8 9 3 359 359 354 353 350 346 342 337 332 331 328 325 312 297 277 202 25 1 349 0 358 295 294
78 59 79 103 81 68 48 39 35 31 27 23 19 12 7 5 3 4 1 3 357 355 350 350 346 344 339 336 332 330 328 320 309 297 281 267 62 3 342 340 351 1 341
94 82 60 50 129 113 77 44 33 29 24 19 13 6 1 354 3 2 359 2 352 350 346 344 343 341 337 334 331 327 324 312 298 282 300 288 23 11 346 328 337 349 355
85 74 85 48 24 23 53 66 37 27 22 15 6 3 353 354 2 357 3 357 346 346 343 344 340 338 330 321 322 328 321 302 263 323 288 37 14 0 337 328 320 326 338
101 92 49 43 30 23 31 60 18 25 21 16 11 359 357 1 359 346 353 346 343 348 339 348 338 334 324 326 326 339 309 341 333 301 288 33 11 349 330 320 318 308 317
81 64 67 34 18 356 25 357 17 21 15 18 17 359 3 356 1 345 348 345 346 351 341 346 341 333 344 336 333 329 341 332 300 312 298 31 6 345 321 316 316 307 306
89 73 50 51 31 4 11 357 18 22 4 10 18 8 1 351 358 352 349 347 346 352 354 343 342 351 341 334 337 328 330 326 318 319 312 22 3 334 322 321 319 318 297
85 62 57 53 29 29 352 17 14 10 10 7 14 13 359 353 357 349 352 346 347 351 349 346 343 339 336 333 333 328 332 323 320 319 301 41 355 331 327 332 327 323 315
99 73 48 49 33 28 31 10 17 10 20 358 11 20 1 352 357 345 346 347 350 344 345 341 343 337 334 337 332 332 328 320 319 308 317 306 152 324 332 334 332 342 335
100 87 62 54 40 26 30 15 9 25 2 7 9 18 4 357 356 343 348 350 352 340 340 343 345 336 340 336 332 336 324 319 325 329 315 311 262 205 302 336 339 335 328
106 86 74 69 49 23 15 4 21 34 357 6 5 19 6 7 357 339 350 349 356 336 341 346 343 342 337 335 341 334 321 324 327 326 318 335 320 168 222 335 335 330 319
99 87 71 48 42 34 14 27 11 27 350 5 8 9 11 8 359 341 349 353 347 340 344 348 347 344 338 340 345 327 325 319 352 329 336 346 336 340 327 350 339 321 308
100 87 84 57 43 11 40 353 350 41 9 12 15 16 10 6 359 345 350 351 342 345 344 349 347 349 335 345 337 329 319 328 336 8 347 334 355 348 330 326 327 307 288
113 101 86 60 35 357 359 350 357 359 23 15 14 24 5 4 356 346 349 350 346 344 343 350 346 351 336 342 339 334 307 338 331 353 321 344 352 346 337 329 328 315 317
123 111 70 70 40 354 17 357 353 357 4 5 12 17 3 358 355 346 351 347 351 346 347 349 347 348 346 340 341 343 331 323 37 333 14 326 349 345 330 333 320 335 314
130 122 107 71 52 20 4 3 342 347 350 0 14 1 11 356 350 349 350 346 351 341 346 348 352 351 345 336 352 347 342 304 10 324 343 7 338 333 326 335 336 325 335
153 136 101 73 55 38 351 13 353 348 350 14 358 360 354 357 350 354 351 349 345 343 347 352 358 356 344 332 358 358 342 349 328 4 324 347 343 332 326 336 323 341 1
143 125 106 73 49 48 24 11 0 359 2 2 353 2 334 350 346 353 350 350 347 341 345 356 2 357 337 333 339 359 327 319 320 316 329 315 342 321 331 323 334 346 356
154 133 108 99 63 44 30 16 0 10 357 351 356 339 348 346 350 357 349 349 349 347 340 351 354 350 335 327 328 323 322 320 327 332 311 328 325 327 324 319 328 322 4
150 129 120 95 66 42 25 23 15 8 352 348 357 342 350 347 347 12 345 353 348 347 336 355 353 339 338 333 323 314 318 324 322 319 311 317 315 320 315 305 340 333 337